Location: Albany
(35.0000°S, 118.0000°E)
Time: 20:01:36
(UTC-04:00)

Atlas Centaur 2 - Visible Passes

Search period start: 20 September 2014 00:00
Search period end: 30 September 2014 00:00
Orbit: 460 x 1328 km, 30.4° (Epoch: 19 September)

Date Brightness Start Highest point End Pass type
(mag) Time Alt. Az. Time Alt. Az. Time Alt. Az.
22 Sep 5.5 17:25:24 10° NNE 17:27:30 11° NE 17:29:35 10° NE visible
23 Sep 5.3 17:21:59 10° N 17:26:23 15° NNE 17:30:46 10° ENE visible
24 Sep 5.1 17:19:39 10° N 17:25:15 19° NNE 17:30:52 10° ENE visible
25 Sep 4.9 17:17:45 10° NNW 17:24:07 24° NNE 17:30:34 10° ENE visible
26 Sep 4.6 17:16:05 10° NNW 17:22:59 29° NNE 17:30:03 10° E visible
27 Sep 5.1 15:30:16 10° NNE 15:32:59 12° NE 15:35:46 10° ENE visible
27 Sep 4.4 17:14:37 10° NW 17:21:50 34° NNE 17:29:22 10° E visible
28 Sep 4.8 15:28:27 12° N 15:31:46 16° NE 15:36:18 10° ENE visible
28 Sep 4.1 17:13:17 10° NW 17:20:43 39° NNE 17:28:35 10° E visible
29 Sep 4.5 15:27:51 16° N 15:30:34 20° NE 15:36:08 10° ENE visible
29 Sep 3.9 17:12:04 10° NW 17:19:36 45° NNE 17:27:43 10° E visible
